Theta_e
301 301 300 301 301 301 302 301 301 302 302 301 300 300 300 301 301 297 293 294 293 286 286 287 289 287 286 285 284 284 285 286 285 282 282 280 279 280 279 281 283 281 281 282 283 281 279 287 287 284 287 289 286 286
300 301 300 300 302 301 301 301 301 302 302 302 300 300 301 301 301 296 292 295 293 290 287 288 290 290 290 289 287 286 285 283 287 283 282 281 280 279 278 278 284 282 285 283 284 285 289 290 289 291 289 289 288 286
300 301 300 300 301 301 301 301 301 301 302 302 302 300 301 301 301 295 291 294 290 285 286 286 286 288 291 291 292 287 286 287 289 288 285 283 280 282 279 279 280 285 287 286 285 287 288 289 290 290 289 289 290 288
301 301 301 301 301 302 302 301 301 301 302 302 303 302 301 301 299 295 292 291 289 284 280 282 286 286 290 291 290 291 290 290 290 290 286 283 281 284 282 282 282 286 286 286 285 286 286 289 290 291 290 290 289 287
301 301 301 301 301 301 302 302 301 302 301 302 302 303 301 301 300 295 293 292 291 287 280 280 282 286 289 289 290 290 290 288 288 285 283 283 284 283 284 283 281 285 285 285 285 288 290 291 292 291 290 290 290 288
301 301 301 301 301 301 301 302 302 302 301 302 302 302 302 301 298 293 285 291 294 292 283 277 281 283 287 289 288 288 289 288 288 285 284 286 285 285 281 277 285 286 287 289 289 288 288 287 285 287 289 289 286 284
301 301 301 301 301 300 301 301 302 301 301 301 301 301 302 301 292 287 284 290 296 294 284 279 278 283 285 286 286 285 286 285 286 285 284 284 283 285 282 278 285 286 288 289 289 287 286 285 290 288 284 283 280 279
301 301 301 301 300 300 300 301 301 301 301 301 301 301 301 299 295 289 292 296 294 287 285 278 278 279 284 282 281 285 284 285 285 284 285 283 283 284 279 283 285 287 287 286 287 287 290 286 284 279 277 277 278 281
300 300 300 299 300 300 299 300 301 301 301 301 300 300 295 289 285 287 296 294 291 287 280 280 276 275 283 281 281 282 281 279 279 280 281 282 281 277 281 283 283 285 284 285 286 285 284 282 284 280 276 275 278 283
298 299 299 299 299 299 299 299 300 301 300 300 294 286 285 285 295 294 287 284 285 284 283 278 276 276 281 279 278 279 278 276 275 277 276 277 279 283 284 284 285 285 285 284 277 277 277 278 280 281 278 280 283 281
296 297 297 299 299 299 299 299 299 300 299 287 285 284 286 294 286 284 281 280 279 277 280 278 277 276 280 277 277 279 276 273 272 274 275 274 274 278 276 275 276 274 280 283 286 287 284 287 286 283 276 278 278 277
294 295 297 297 299 299 299 299 299 295 287 288 287 287 285 283 280 277 276 274 275 272 274 275 275 277 278 278 276 276 274 273 271 268 271 270 276 276 271 270 269 268 267 269 271 277 274 280 281 281 279 276 274 272
293 294 295 296 297 299 299 298 299 296 292 286 284 281 280 279 274 273 268 271 270 272 273 275 275 278 278 279 274 273 272 271 269 269 270 274 275 273 268 264 265 266 263 264 268 269 275 273 270 273 272 271 270 269
291 292 294 295 296 298 299 299 299 294 286 281 278 273 276 272 272 272 271 273 276 274 275 276 274 276 273 276 272 272 269 268 267 265 269 276 273 267 263 261 267 271 266 263 266 266 270 273 270 271 271 271 271 270
289 291 292 293 294 297 298 298 298 290 285 279 279 273 272 270 266 267 266 272 270 278 276 274 273 274 271 269 269 266 265 266 268 270 274 276 268 261 263 270 273 272 263 263 263 264 265 267 270 269 271 272 272 272
288 289 288 292 293 294 297 297 291 285 284 281 279 270 266 271 264 265 269 271 272 277 274 274 270 272 270 269 267 268 268 267 273 272 275 267 264 261 262 271 271 264 262 263 263 264 264 264 265 266 268 269 269 269
287 282 288 290 292 292 296 289 285 282 280 279 276 265 273 275 274 270 271 274 277 279 275 271 269 270 267 265 267 269 269 274 275 273 266 262 264 264 263 271 271 270 266 265 264 263 263 263 264 265 263 262 263 262
281 283 288 289 289 289 285 285 284 281 277 275 273 270 267 272 271 267 268 277 279 275 274 273 269 266 268 267 270 274 271 270 264 265 264 261 259 259 264 269 266 268 268 267 267 266 266 266 265 263 261 261 261 261
282 284 288 289 287 283 280 281 282 277 276 272 266 273 270 269 269 275 276 279 272 275 273 272 269 267 269 270 275 276 271 266 270 265 261 257 256 259 262 262 262 262 263 263 265 264 263 262 263 262 262 264 262 262
286 286 287 289 286 277 275 277 284 278 274 273 268 267 270 270 272 275 277 274 274 273 270 269 272 273 275 276 274 273 269 265 265 267 267 263 259 259 261 262 261 258 258 258 258 258 260 260 259 260 261 262 262 261
283 283 286 282 279 277 275 272 274 274 271 273 264 272 270 271 274 272 273 269 275 274 270 266 264 261 261 262 263 264 264 263 266 270 271 266 259 260 258 257 258 259 260 260 261 259 260 261 258 258 260 259 259 259
274 283 277 279 272 273 272 271 270 271 265 264 268 268 271 271 272 270 270 271 266 257 257 258 258 259 261 261 261 261 260 258 259 262 261 261 259 259 257 258 260 259 259 260 260 260 258 255 255 257 258 256 257 258
280 276 269 267 266 268 267 268 270 267 264 266 269 266 265 269 272 269 261 259 256 256 256 257 257 258 259 260 260 261 260 260 262 262 262 262 261 260 260 258 260 259 258 256 256 258 256 255 255 257 256 257 258 257
270 259 260 261 261 264 263 265 265 265 270 269 270 267 266 269 270 264 258 253 252 255 254 255 257 260 262 262 261 261 261 261 260 260 261 261 260 258 260 258 258 258 260 256 257 256 256 256 256 257 257 257 258 258
261 255 256 253 255 259 263 262 263 259 265 266 266 264 263 265 260 255 254 250 250 251 252 254 256 257 259 261 262 262 261 261 262 261 259 261 258 257 256 256 256 256 257 257 256 257 256 256 257 258 258 258 258 257
251 250 249 249 252 252 254 255 259 254 261 261 258 259 260 257 253 248 247 248 249 250 251 251 252 254 258 259 259 260 260 261 261 261 259 260 261 262 260 259 258 258 258 259 259 258 257 258 258 258 258 258 258 258
247 244 248 252 250 250 250 252 252 251 246 250 250 253 257 252 248 247 250 251 250 251 252 253 253 255 256 257 259 260 260 260 261 261 260 260 261 262 263 262 261 262 259 260 261 261 260 259 259 259 258 258 258 259
247 248 247 247 247 248 248 246 244 245 247 247 250 245 247 245 244 248 250 252 253 253 253 254 256 257 257 258 258 259 261 261 261 262 262 262 261 261 262 262 262 264 262 262 262 262 262 261 260 259 258 258 257 257
247 247 247 245 245 247 246 246 245 245 249 248 246 245 245 248 250 249 251 253 254 253 252 252 253 256 257 259 258 258 258 258 260 260 260 259 260 259 262 262 262 262 263 263 265 263 263 262 261 259 258 258 257 257
247 243 242 243 244 243 247 249 248 250 250 249 249 249 249 250 251 253 252 252 251 251 252 253 253 253 253 253 255 256 257 258 257 258 260 259 258 259 261 262 262 263 264 264 264 264 265 261 260 258 257 257 257 256
246 242 241 242 244 246 248 252 253 253 252 251 251 249 248 249 252 253 252 252 252 253 252 251 252 252 252 252 252 252 254 256 258 258 258 258 258 259 260 261 262 262 262 261 260 260 259 259 258 258 257 257 257 256
244 240 241 241 244 247 250 249 250 249 250 249 248 249 249 248 247 250 253 252 251 250 251 252 251 251 253 253 254 254 255 255 258 259 258 258 258 259 260 261 261 262 261 260 260 260 259 259 258 258 257 257 256 256
246 247 245 243 242 245 247 250 248 248 249 248 248 248 248 245 245 250 253 254 252 251 251 252 254 254 254 253 254 254 254 254 256 261 262 262 261 260 259 260 260 260 260 259 259 259 258 258 257 257 256 256 256 255
Wind_Speed
19 17 17 15 16 13 13 12 11 7 12 10 7 5 4 4 8 3 2 2 1 1 2 5 2 2 1 1 0 0 0 1 2 2 2 2 2 2 2 3 3 4 4 2 2 4 7 2 2 3 2 1 3 2
19 18 18 17 16 16 13 14 12 10 10 12 10 8 6 4 8 5 3 1 1 2 1 2 2 1 1 2 0 2 1 1 1 2 2 1 2 2 4 3 3 4 3 2 5 3 4 4 5 3 2 3 3 3
20 19 18 17 16 16 15 13 14 13 11 11 12 10 9 7 7 5 3 2 3 2 2 2 3 1 2 3 0 1 1 2 2 2 2 1 4 2 4 6 2 3 4 3 1 3 3 4 4 5 7 6 5 4
20 19 18 17 16 16 16 15 14 14 13 11 14 12 11 10 11 6 3 3 3 3 1 3 3 1 2 2 2 1 3 3 2 1 0 2 2 2 2 2 4 1 4 4 5 5 4 8 9 5 5 4 3 4
20 19 18 17 17 15 16 16 14 15 13 13 10 15 13 13 12 4 2 3 2 3 2 2 3 2 2 1 2 2 4 3 0 1 2 2 2 2 2 2 8 7 6 5 4 5 2 5 3 4 7 6 4 4
21 20 19 18 17 16 15 15 15 14 14 13 11 12 15 14 13 2 2 0 3 3 2 2 1 2 1 1 3 4 4 4 3 3 2 3 1 1 4 6 10 11 7 6 7 5 6 4 5 3 4 6 3 3
24 23 21 20 20 18 16 14 16 15 16 13 14 10 16 18 3 3 4 2 8 3 2 3 2 1 1 2 1 0 1 1 2 2 4 3 3 5 4 10 20 8 10 10 6 4 5 4 6 7 5 1 0 1
24 23 23 23 22 19 17 16 15 16 17 15 13 12 15 17 8 1 1 11 4 4 1 2 2 1 2 2 2 0 2 2 3 2 2 3 2 4 9 21 14 12 16 12 14 13 16 2 2 3 2 3 2 5
23 22 22 21 22 21 19 17 17 17 18 16 14 12 5 2 3 3 11 10 2 2 3 3 3 2 2 1 1 2 1 3 1 3 3 2 4 12 12 8 10 9 10 13 12 12 8 9 8 6 6 4 4 6
17 18 27 24 24 24 24 23 20 19 20 18 6 3 3 4 12 13 3 3 2 2 2 4 1 3 4 2 2 2 0 2 3 2 2 5 9 15 12 14 14 10 12 6 5 5 6 8 12 11 13 7 8 3
19 21 16 22 25 26 25 24 22 20 21 2 4 3 0 12 3 1 4 5 4 3 5 2 4 5 2 4 4 3 2 1 2 1 3 3 7 6 2 6 5 7 7 9 13 11 7 13 10 8 5 7 4 4
19 18 18 16 28 27 28 26 25 13 3 8 9 6 3 2 2 5 6 3 5 7 3 5 5 2 3 2 3 3 2 1 5 1 2 5 8 4 3 5 7 7 7 7 4 6 3 5 6 6 5 6 6 5
18 17 20 19 19 29 31 29 30 19 18 3 4 6 5 4 7 9 11 4 3 5 6 5 4 4 3 2 3 2 4 4 1 2 6 8 3 5 5 5 7 5 3 6 6 5 5 5 3 4 6 6 9 8
24 21 18 18 23 22 31 33 32 27 6 4 8 9 10 8 8 6 7 8 5 5 10 5 4 3 2 4 2 4 1 0 2 3 9 4 4 4 5 4 5 8 7 6 5 5 3 8 7 6 9 9 11 10
18 21 23 19 16 29 28 33 33 9 4 6 7 9 9 3 3 2 1 5 2 9 8 6 4 1 2 4 1 4 1 5 6 7 4 3 2 4 4 5 6 6 5 4 2 3 4 4 8 11 7 8 10 9
19 16 12 22 19 16 29 25 17 6 4 6 7 4 1 6 2 2 3 4 3 8 4 3 5 3 3 4 4 7 5 7 6 5 3 2 3 3 3 4 4 3 2 3 4 4 6 7 8 8 9 9 8 8
20 5 12 19 21 20 22 7 5 7 7 7 5 0 6 6 10 5 4 6 7 11 5 5 6 6 5 3 3 6 8 5 4 3 1 3 2 3 3 3 2 4 5 5 5 7 8 7 7 10 11 6 8 8
6 5 14 19 18 10 2 7 5 9 8 3 6 6 3 4 9 4 3 12 8 4 5 6 7 5 7 8 5 5 6 3 3 3 2 2 3 3 2 1 2 4 5 6 6 6 6 7 8 7 8 7 8 8
5 6 18 21 11 4 4 4 3 5 2 2 1 7 4 4 1 6 10 13 3 4 9 3 5 5 5 5 5 3 2 3 2 1 1 1 3 3 3 3 3 5 5 4 5 4 4 5 6 6 6 4 6 5
15 16 18 19 10 2 2 3 3 3 3 4 4 2 4 4 6 7 10 6 4 4 3 4 5 5 6 4 3 3 2 3 3 1 1 2 1 3 4 3 4 5 5 5 5 3 5 5 4 3 3 5 6 5
10 7 9 6 2 3 3 2 1 2 5 3 3 5 4 2 6 5 6 3 3 3 3 1 1 2 2 3 3 2 3 4 4 2 2 4 3 3 4 3 5 3 3 3 4 3 2 4 4 3 4 4 5 5
2 8 3 4 4 3 3 1 1 3 4 3 4 3 5 3 5 4 5 3 3 2 1 1 1 2 2 3 3 1 2 3 1 1 4 8 5 4 4 5 5 4 3 3 3 5 4 3 3 3 5 5 5 5
10 5 4 3 4 3 3 2 2 1 3 4 4 5 3 4 4 4 5 4 3 2 2 1 3 3 0 1 1 2 1 2 2 2 2 2 3 3 5 4 3 6 5 3 2 4 5 4 4 5 6 5 6 6
14 9 6 4 5 2 3 2 2 1 3 1 3 4 5 5 5 3 5 3 2 3 5 7 5 2 1 2 3 3 4 2 2 1 1 4 4 1 2 4 3 2 2 6 5 5 5 5 6 5 4 5 5 5
11 9 6 6 5 3 2 2 4 3 3 3 4 3 2 2 4 5 2 2 4 4 6 6 5 5 3 1 1 2 4 2 1 2 1 0 5 5 3 2 1 1 4 8 6 6 6 5 5 6 6 6 7 7
10 6 6 5 5 5 5 3 3 2 3 3 5 3 3 4 5 4 2 4 3 3 5 5 5 5 3 4 3 3 4 3 1 1 0 2 3 3 5 5 4 4 4 2 7 8 8 7 7 8 6 6 7 8
6 5 3 3 2 3 3 2 3 6 7 5 4 6 4 5 4 2 2 2 3 3 5 5 4 3 3 4 3 3 3 3 3 3 3 3 3 2 2 4 4 2 6 6 5 8 10 9 8 7 6 5 4 5
3 5 7 6 5 5 4 4 6 7 4 5 2 8 5 5 1 2 2 5 6 5 4 3 3 3 2 3 4 3 3 3 3 4 5 6 5 4 4 3 4 11 6 4 5 5 6 8 8 7 7 7 4 3
4 3 3 5 4 7 8 6 5 3 3 2 3 3 4 3 2 2 3 5 4 4 5 6 6 5 4 4 6 6 5 4 1 2 3 3 1 4 4 4 4 5 4 5 7 6 8 7 9 8 7 6 5 5
4 1 5 4 7 7 5 4 3 4 3 3 4 6 6 3 5 5 6 7 8 7 6 5 5 5 6 5 6 8 8 7 6 4 2 3 2 1 2 2 4 4 4 6 6 8 12 10 11 7 8 6 5 5
2 4 5 5 5 2 2 4 7 8 8 8 8 6 5 3 1 8 10 8 6 6 7 8 8 8 8 8 7 6 6 8 8 9 7 4 3 3 3 3 3 4 5 7 7 7 7 7 7 8 9 9 8 6
3 3 5 5 1 3 2 1 2 3 4 4 4 4 4 4 4 4 7 7 7 7 9 7 7 7 7 4 4 4 6 5 6 5 7 4 3 4 3 3 3 5 6 6 6 6 8 8 7 7 8 9 8 7
3 4 4 4 4 1 3 2 3 3 3 3 3 3 3 1 4 2 3 6 5 5 5 5 4 4 6 6 7 6 8 6 13 14 11 10 9 7 5 4 5 6 7 7 7 7 8 10 8 8 8 8 7 6
Wind_Direction
197 201 207 208 198 211 198 204 208 219 193 188 188 171 139 128 119 94 94 18 62 120 253 186 198 170 157 321 7 168 200 40 43 127 210 164 215 172 310 306 203 205 187 184 190 201 240 185 143 196 352 272 246 250
200 201 203 205 205 195 206 195 206 196 204 195 187 180 160 157 133 115 102 36 65 96 319 308 261 337 13 112 144 6 29 188 154 103 208 170 206 169 166 235 238 259 202 209 218 230 175 182 157 196 211 270 284 265
203 201 201 206 207 199 196 201 200 201 200 202 194 185 166 167 143 112 116 123 74 51 336 306 244 20 83 246 336 274 242 298 149 2 131 65 256 160 200 233 301 237 194 220 332 350 263 252 264 218 180 213 218 220
200 200 200 200 205 201 196 199 200 202 206 207 197 188 172 163 146 125 119 143 88 105 141 278 314 299 4 7 218 198 123 100 81 35 223 198 246 195 253 316 249 252 158 204 254 254 276 252 237 231 233 223 270 269
198 199 200 198 200 204 195 195 202 196 205 203 204 186 176 172 154 104 105 179 153 128 192 270 293 283 285 254 267 168 175 182 133 231 238 236 226 235 220 278 244 187 187 200 236 230 236 264 254 219 209 249 226 248
197 198 198 197 199 203 199 197 195 195 193 197 195 192 177 169 138 104 21 272 182 121 90 310 348 273 30 170 203 206 190 200 199 191 216 237 128 230 249 255 242 191 202 201 237 209 209 260 285 264 211 236 237 230
199 197 199 201 199 199 200 199 195 190 189 189 193 190 181 156 117 147 185 188 161 99 112 285 278 260 306 84 82 140 104 214 179 200 220 213 215 190 247 252 244 204 221 228 217 146 267 203 232 214 206 271 230 254
202 201 198 199 200 195 198 195 192 189 187 183 184 187 183 144 111 97 46 138 86 88 85 239 258 190 253 149 158 171 187 162 200 262 249 205 156 216 249 244 267 245 236 235 224 209 238 159 179 201 118 164 242 245
206 200 199 205 204 195 196 207 187 188 182 173 173 153 100 67 129 200 150 102 76 114 180 202 216 219 199 110 86 129 350 210 26 248 218 244 193 227 240 253 236 214 193 222 215 212 213 214 231 188 192 201 219 244
189 206 207 206 205 201 197 199 189 185 178 166 113 113 182 190 140 102 100 134 173 179 219 232 79 174 184 136 133 172 330 224 231 227 316 230 252 262 253 242 252 243 223 188 142 225 212 245 218 212 213 199 205 189
207 205 208 210 199 197 198 197 184 180 176 99 141 132 26 144 85 152 164 177 144 214 212 208 182 142 220 149 178 212 193 186 239 175 249 250 263 247 327 304 320 331 276 233 232 238 225 222 222 213 196 205 185 175
213 215 211 218 197 187 193 199 176 165 140 142 116 102 116 157 152 167 172 137 184 214 196 169 177 143 147 132 117 170 196 191 249 33 248 258 251 272 324 311 312 326 319 296 264 233 204 192 196 189 171 154 152 131
226 216 214 218 217 194 190 193 185 149 130 80 94 136 154 173 202 196 171 164 194 187 176 163 134 137 134 142 93 151 183 224 107 217 239 241 274 283 302 307 308 307 314 290 282 262 174 148 114 124 130 114 122 112
220 215 215 215 212 211 190 192 191 146 123 163 156 159 199 182 220 172 170 171 199 131 145 134 109 139 138 150 133 185 103 265 233 243 238 250 251 282 308 285 285 327 339 315 298 286 233 144 113 92 109 127 125 123
218 226 214 215 230 208 204 195 190 159 152 171 166 198 198 167 74 151 87 115 161 144 136 112 85 102 99 114 69 105 96 242 223 234 238 245 277 299 306 322 336 338 337 340 350 79 70 55 111 101 90 99 104 112
223 226 223 207 214 241 195 190 163 166 199 176 183 121 75 125 66 123 159 123 186 141 94 73 119 134 159 137 149 208 168 224 244 221 251 312 304 278 287 316 13 31 31 54 70 81 81 79 87 93 80 76 86 97
211 219 201 213 204 222 216 176 145 181 199 191 177 185 154 152 164 165 151 156 163 153 162 136 150 182 113 118 232 191 210 223 232 254 253 235 249 304 295 308 65 99 77 65 77 80 91 93 95 91 90 65 82 81
200 188 207 212 203 207 231 187 200 184 188 140 156 179 173 129 133 126 155 146 151 167 141 185 126 159 173 176 227 222 229 261 232 250 281 272 272 262 249 11 60 84 87 87 93 99 103 101 97 99 113 116 100 92
152 187 208 208 183 166 184 229 189 177 137 147 89 141 127 139 302 138 156 162 96 119 118 143 130 174 205 211 216 194 205 213 259 22 240 244 255 243 134 114 96 83 87 76 88 85 82 77 109 129 133 133 117 125
190 204 214 175 147 134 118 268 167 140 149 147 87 105 136 151 130 136 150 141 118 132 118 174 187 206 184 199 183 138 137 146 144 156 219 165 158 170 130 147 122 123 103 85 79 82 100 88 65 100 118 122 126 121
139 188 157 108 114 90 81 356 341 54 122 116 166 117 101 94 121 143 153 173 147 180 182 187 282 327 360 16 26 27 130 161 201 191 223 159 167 157 137 129 131 130 126 144 131 113 106 112 127 125 121 113 106 106
145 127 94 12 85 57 41 74 85 358 68 147 109 102 118 143 138 172 133 115 79 77 304 338 325 323 8 38 9 352 313 263 191 136 83 117 141 160 174 172 154 148 145 150 149 144 130 129 137 125 118 118 114 113
94 58 53 63 76 113 223 350 66 310 113 170 149 94 128 140 168 86 79 58 83 11 314 314 297 249 203 355 46 56 51 190 222 224 184 151 117 127 127 159 165 143 149 170 162 138 134 142 131 120 121 122 121 115
32 49 29 32 32 158 59 117 67 350 36 119 172 142 131 128 134 68 93 54 356 337 9 353 336 351 101 60 47 12 353 4 95 77 134 142 136 138 142 142 162 141 126 127 136 130 136 138 135 137 135 130 128 128
75 10 7 9 4 13 139 178 109 86 169 215 148 128 104 36 91 71 64 11 346 354 3 354 360 2 28 28 41 33 29 2 160 156 344 61 108 108 87 81 93 191 154 134 147 148 146 146 148 148 150 149 147 144
69 14 27 357 1 33 359 6 26 44 59 37 37 348 61 74 71 88 34 332 316 327 356 350 340 343 359 23 352 1 347 341 10 118 193 170 178 160 160 166 166 201 212 186 148 152 151 152 149 150 153 150 148 142
61 348 348 50 9 327 15 345 12 57 50 9 351 358 55 61 83 60 345 10 326 296 298 295 283 291 305 337 358 356 345 360 50 80 86 65 56 55 150 165 188 176 156 168 161 159 153 154 151 152 143 137 146 147
61 20 32 9 42 355 38 42 30 28 12 334 335 33 67 38 70 302 310 320 311 303 299 298 323 332 356 353 360 358 22 36 84 102 99 66 45 36 43 69 96 123 126 137 140 143 148 146 141 138 143 144 138 131
39 353 48 41 38 39 40 24 17 320 329 347 78 73 94 75 334 282 287 326 340 17 28 15 3 352 14 46 45 31 23 6 322 127 116 109 87 27 16 69 87 100 113 123 140 135 138 136 131 126 121 121 115 103
339 50 81 45 54 35 5 357 2 10 52 69 97 108 93 73 33 27 25 19 28 26 20 28 14 23 29 26 33 40 29 23 22 19 73 89 69 3 16 54 88 106 113 122 128 120 108 106 107 104 110 112 113 114
320 55 64 53 85 266 224 92 71 67 62 67 64 74 66 116 82 36 30 13 15 26 34 30 34 28 32 31 25 13 26 7 19 34 44 48 40 33 35 45 56 85 92 99 106 116 121 111 114 120 124 129 131 125
25 66 111 94 223 282 7 4 64 47 19 28 30 30 35 45 42 26 354 5 9 24 20 25 27 17 7 10 21 26 19 350 358 33 33 37 34 30 34 42 66 88 97 100 106 112 112 115 119 120 124 126 128 129
33 18 48 86 42 91 262 94 60 80 41 45 43 35 50 117 93 309 343 18 9 359 350 347 3 16 16 25 24 18 18 9 14 19 56 62 60 57 47 52 69 83 91 92 95 103 104 110 113 118 121 125 125 124